Regional Weather Roundup
Issued by NWS Bismarck, ND

Home | Current Version | Previous Version | Text Only | Print | Product List | Glossary On
Versions: 1 2 3 4 5 6 7 8 9 10 11 12 13 14 15 16 17 18 19 20 21 22 23 24 25 26 27 28 29 30 31 32 33 34 35 36 37 38 39 40 41 42 43 44 45 46 47 48 49 50
000
ASUS43 KBIS 020220
RWRBIS

NWR BROADCAST TEXT
NATIONAL WEATHER SERVICE BISMARCK ND
900 PM CDT WED OCT 01 2014

NOTE: "FAIR" INDICATES FEW OR NO CLOUDS BELOW 12,000 FEET WITH NO
SIGNIFICANT WEATHER AND/OR OBSTRUCTIONS TO VISIBILITY.


CITY           SKY/WX    TMP DP  RH WIND       PRES   REMARKS
WILLISTON      MOCLDY    51  44  77 SW8       29.83R
MINOT          PTCLDY    51  44  77 SW8       29.79R
MINOT AFB      PTCLDY    49  48  97 W9        29.78R
BISMARCK       CLOUDY    57  49  74 W8        29.84R
DICKINSON      LGT RAIN  50  46  86 W7        29.87R
GARRISON         N/A     51  45  79 W8        29.82R
HETTINGER ARPT CLOUDY    50  43  77 W8        29.90R
JAMESTOWN      CLOUDY    57  50  77 W8        29.79R
BEACH            N/A     46  46 100 W8        29.90R
CARRINGTON     FAIR      54  52  94 W8        29.80R
CROSBY         FAIR      50  46  87 W12       29.81R
HARVEY         MOCLDY    54  46  76 NW12      29.79R
HAZEN          CLOUDY    54  46  76 W7        29.85R
LINTON         FAIR      50  48  93 W9        29.85R
MANDAN         CLOUDY    55  48  76 W9        29.85R
OAKES            N/A     55  52  88 W10       29.82R
RUGBY          FAIR      48  46  93 W10       29.77R
STANLEY        CLOUDY    50  50 100 W9        29.81R
TIOGA          MOCLDY    48  48 100 SW8       29.85R
WATFORD CITY   MOCLDY    48  45  87 SW5       29.83S
$$

CITY           SKY/WX    TMP DP  RH WIND       PRES   REMARKS
GRAND FORKS    CLOUDY    60  51  72 W5        29.71R
GRAND FORKS AF CLOUDY    60  52  76 W8        29.73R
DEVILS LAKE    CLOUDY    55  45  67 W15       29.74R
FARGO          CLOUDY    62  51  67 SW8       29.76R
CANDO          CLOUDY    54  46  76 W12       29.75R
CAVALIER       CLOUDY    59  50  72 W8        29.69R
GRAFTON        CLOUDY    55  50  82 S6        29.71R
GWINNER        MOCLDY    55  48  76 W7        29.82R
LANGDON        CLOUDY    54  50  87 W12       29.71R
ROLLA          MOCLDY    50  46  87 W10G16    29.75R
WALHALLA         N/A     57  50  77 W7G16     29.69R
$$

CITY           SKY/WX    TMP DP  RH WIND       PRES   REMARKS
ABERDEEN       PTCLDY    57  48  72 W8        29.83R
MOBRIDGE       PTCLDY    53  48  83 NW6       29.84R
BUFFALO          N/A     47  40  76 W7        29.86R
RAPID CITY     CLOUDY    52  41  66 N8        29.95R
GLASGOW        CLEAR     53  34  48 CALM      29.85R
SIDNEY         CLOUDY    52  45  76 W7        29.88S
WOLF POINT     PTCLDY    48  37  65 W5        29.86R
GLENDIVE       MOCLDY    46  43  87 W7        29.91R
MILES CITY     CLEAR     48  32  53 NW7       29.92S
BAKER          PTCLDY    45  41  86 W7        29.92R
$$

CITY           SKY/WX    TMP DP  RH WIND       PRES   REMARKS
BILLINGS       PTCLDY    50  36  58 SW8       29.97R
GREAT FALLS    CLEAR     46  28  49 SW12      29.91S
REGINA         PTCLDY    43  39  87 W8        29.76R
ESTEVAN        MOCLDY    48  45  87 W7        29.79R
$$




USA.gov is the U.S. government's official web portal to all federal, state and local government web resources and services.